Domov               UVHVVR             MKGP            O straneh              
ZDRAVSTVENO VARSTVO RASTLIN
  MREŽA AGROMET. POSTAJ
 ► PROGNOSTIČNA OBVESTILA
AGROMETEOROLOŠKI PODATKI -
ARSO
OBVLADOVANJE TVEGANJ ZARADI
NEUGODNIH VREMENSKIH RAZMER
  ► NARAVNE NESREČE
  ► SUŠA/MOČA
  ► NAMAKANJE
  ► ŽLED (gozdarstvo)
KARTOGRAFSKI PRIKAZI
SPLETNE POVEZAVE
PROJEKTI IN PUBLIKACIJE

AGROMETEOROLOŠKA MREŽA: VREMENSKE POSTAJE IN FENOLOŠKA OPAZOVANJA

Pregled podatkov za lokacijo Lendava, meteorološka postaja 42840

Pregled senzorjev na lokaciji

ID Ime Zadnja
vrednost
Datum
zadnje
spremembe
Tip
senzorja
2103 Omočenost lista (U) 0 U 21.8.2017 15:30 A730WET
2104 Temperatura 2 m ( °C) 22,45 °C 21.8.2017 15:30 50YA
2105 Relativna vlaga 2 m (% RH) 38,02 % RH 21.8.2017 15:30 50YA
2106 Padavine 0.2 mm (mm) 0 mm 21.8.2017 15:30 Rain-O-Matic

Pregled podatkov zadnjih 24 ur

Zap.
št.
Datum in čas Lendava
Omočenost
lista
Padavine
0.2
mm
Relativna
vlaga
2
m
Temperatura
2
m
0 21.8.2017 14:30 0 0 38,02 22,45
1 21.8.2017 14:00 0 0 40,55 22,68
2 21.8.2017 13:30 0 0 40,84 22,27
3 21.8.2017 13:00 0 0 42,27 21,78
4 21.8.2017 12:30 0 0 40,62 21,86
5 21.8.2017 12:00 0 0 41,13 21,8
6 21.8.2017 11:30 0 0 41,73 21,42
7 21.8.2017 11:00 0 0 42,46 20,91
8 21.8.2017 10:30 0 0 49,58 20,49
9 21.8.2017 10:00 0 0 52,01 19,64
10 21.8.2017 09:30 0 0 59,12 18,7
11 21.8.2017 09:00 0 0 66,83 17,02
12 21.8.2017 08:30 0 0 74,83 15,26
13 21.8.2017 08:00 0 0 76,41 14,24
14 21.8.2017 07:30 0 0 77,8 13,12
15 21.8.2017 07:00 0 0 81,72 12,11
16 21.8.2017 06:30 0 0 70,12 13,5
17 21.8.2017 06:00 0 0 73,61 12,7
18 21.8.2017 05:30 0 0 80,09 11,95
19 21.8.2017 05:00 0 0 72,35 13,05
20 21.8.2017 04:30 0 0 68,72 13,53
21 21.8.2017 04:00 0 0 63,16 14,49
22 21.8.2017 03:30 0 0 63,96 14,39
23 21.8.2017 03:00 0 0 66,2 14,23
24 21.8.2017 02:30 0 0 66,46 14,24
25 21.8.2017 02:00 0 0 64,64 14,69
26 21.8.2017 01:30 0 0 67,41 14,29
27 21.8.2017 01:00 0 0 66,2 14,76
28 21.8.2017 00:30 0 0 63,31 15,22
29 21.8.2017 00:00 0 0 61,98 15,53
30 20.8.2017 23:30 0 0 61,62 15,8
31 20.8.2017 23:00 0 0 60,36 16,17
32 20.8.2017 22:30 0 0 59,15 16,53
33 20.8.2017 22:00 0 0 58,1 17
34 20.8.2017 21:30 0 0 58,42 17,22
35 20.8.2017 21:00 0 0 56,66 17,55
36 20.8.2017 20:30 0 0 55,94 17,73
37 20.8.2017 20:00 0 0 55,49 18,22
38 20.8.2017 19:30 0 0 57,7 19,12
39 20.8.2017 19:00 0 0 57,01 19,78
40 20.8.2017 18:30 0 0 55,86 20,8
41 20.8.2017 18:00 0 0 53,3 21,64
42 20.8.2017 17:30 0 0 51,1 21,39
43 20.8.2017 17:00 0 0 49,58 21,57
44 20.8.2017 16:30 0 0 48,75 21,77
45 20.8.2017 16:00 0 0 44,95 23,05
© 2011 Ministrstvo za kmetijstvo, gozdarstvo in prehrano. Vse pravice pridržane.